Meteo Giornale » Osservazioni meteo Francia » Parigi-Orly

ore: 06:30 - Osservazioni Meteo Parigi-Orly
Lat. 48° 44' N Lon. 2° 24' E Alt. 89 metri s.l.m.

foschia Europe/Paris

0 °C

Foschia

Temp. 24 Ore

0 °C

9 °C

Nord

1.8 Km/h

Dew point -0 °C

Umidità 100 %

Visibilità  4 Km

Il sole sorge alle ore 08:32

Il sole tramonta alle ore 16:56

Data e Ora Cielo e Fenomeni T °C DP °C Um. % Pres. hPa Vis. km Vento km/h
Oggi h: 06:30 foschia Foschia 0 -0 100 1023 4 N 1.8
Oggi h: 06:00 foschia Foschia 1 0 93 1023 4 E 9.3
Oggi h: 05:30 foschia Foschia 1 0 93 1023 5 E 11.1
Oggi h: 05:00 foschia Foschia 1 1 100 1023 4 E 9.3
Oggi h: 04:30 molto_nuvoloso Molto Nuvoloso 1 1 100 1023 6 E/SE 9.3
Oggi h: 04:00 molto_nuvoloso Molto Nuvoloso 1 1 100 1024 6 N 3.7
Oggi h: 03:30 molto_nuvoloso Molto Nuvoloso 2 1 93 1024 6 E/SE 7.4
Oggi h: 03:00 foschia Foschia 2 1 93 1024 4 E/SE 7.4
Oggi h: 02:30 foschia Foschia 2 1 93 1024 3 N 5.5
Oggi h: 02:00 foschia Foschia 2 1 93 1024 2 E/SE 7.4
Oggi h: 01:30 nebbia Nebbia 2 1 93 1024 0.5 E/SE 11.1
Oggi h: 01:00 poco_nuvoloso Poco Nuvoloso 2 2 100 1024 6 E/SE 9.3
Oggi h: 00:30 poco_nuvoloso Poco Nuvoloso 3 2 93 1024 6 N 3.7
Oggi h: 00:00 poco_nuvoloso Poco Nuvoloso 3 2 93 1024 7 N 5.5
Ieri h: 23:30 poco_nuvoloso Poco Nuvoloso 3 3 100 1024 7 N 3.7
Ieri h: 23:00 nebbia Nebbia a Strati 4 3 93 1024 7 N 3.7
Ieri h: 22:30 nebbia Nebbia a Strati 3 3 100 1024 7 N 5.5
Ieri h: 22:00 nebbia Nebbia a Strati 4 4 100 1024 7 N 0
Ieri h: 21:30 nebbia Nebbia a Strati 4 3 93 1024 7 N 0
Ieri h: 21:00 nebbia Nebbia a Strati 5 4 93 1024 7 N 0
Ieri h: 20:30 nebbia Nebbia a Strati 4 3 93 1024 7 N 3.7
Ieri h: 20:00 nuvoloso Nuvoloso 5 4 93 1024 6 N 3.7
Ieri h: 19:30 molto_nuvoloso Molto Nuvoloso 6 4 86 1024 6 N 5.5
Ieri h: 19:13 molto_nuvoloso Molto Nuvoloso 6 4 86 1024 6 N 5.5
Ieri h: 18:30 molto_nuvoloso Molto Nuvoloso 7 5 87 1024 10 E/SE 7.4
Ieri h: 18:00 molto_nuvoloso Molto Nuvoloso 7 4 81 1024 10 N 3.7
Ieri h: 17:30 molto_nuvoloso Molto Nuvoloso 7 4 81 1024 10 SE 9.3
Ieri h: 17:00 molto_nuvoloso Molto Nuvoloso 7 4 81 1024 10 N 5.5
Ieri h: 16:30 molto_nuvoloso Molto Nuvoloso 7 4 81 1024 10 N 5.5
Ieri h: 16:00 molto_nuvoloso Molto Nuvoloso 8 5 81 1024 10 SE 7.4
Ieri h: 15:30 molto_nuvoloso Molto Nuvoloso 8 5 81 1024 10 S/SE 9.3
Ieri h: 15:00 molto_nuvoloso Molto Nuvoloso 8 5 81 1024 10 SE 9.3
Ieri h: 14:30 molto_nuvoloso Molto Nuvoloso 8 5 81 1025 10 S 7.4
Ieri h: 14:00 molto_nuvoloso Molto Nuvoloso 8 5 81 1025 10 S 7.4
Ieri h: 13:30 molto_nuvoloso Molto Nuvoloso 9 6 81 1025 10 N 5.5
Ieri h: 13:00 molto_nuvoloso Molto Nuvoloso 9 5 75 1025 10 N 5.5
Ieri h: 12:34 molto_nuvoloso Molto Nuvoloso 8 5 81 1026 10 E/SE 7.4
Ieri h: 12:00 molto_nuvoloso Molto Nuvoloso 7 5 87 1026 10 N 5.5
Ieri h: 11:30 molto_nuvoloso Molto Nuvoloso 6 5 93 1026 10 N 3.7
Ieri h: 11:00 molto_nuvoloso Molto Nuvoloso 6 5 93 1026 10 N 3.7
Ieri h: 10:30 molto_nuvoloso Molto Nuvoloso 5 5 100 1026 10 N 3.7
Ieri h: 10:00 molto_nuvoloso Molto Nuvoloso 5 4 93 1026 10 O 7.4
Ieri h: 09:30 molto_nuvoloso Molto Nuvoloso 4 4 100 1026 8 O 7.4
Ieri h: 09:00 nuvoloso Nuvoloso 3 2 93 1026 8 N 5.5
Ieri h: 08:30 nuvoloso Nuvoloso 3 2 93 1026 8 N 3.7
Ieri h: 08:00 nuvoloso Nuvoloso 4 3 93 1026 8 N 1.8
Ieri h: 07:30 molto_nuvoloso Molto Nuvoloso 3 3 100 1026 10 N 5.5
Ieri h: 07:00 molto_nuvoloso Molto Nuvoloso 2 2 100 1026 10 N 3.7
Ieri h: 06:30 nebbia Nebbia a Strati 2 1 93 1026 10 N 1.8